MTN8102 TJSJ-TISX

Flight info

Callsign MTN8102
Flight time 0h 37m
Altitude 7000
Route SJU DCT YUNKE DCT HOMAG DCT ZIDUG DCT SNOOZ
Aircraft C208/L-SDFGR/C

Departure

Time 2026-04-25 13:50
Airport Luis Munoz Marin International Airport (TJSJ)

Arrival

Time 2026-04-25 14:28
Airport Henry E. Rohlsen Airport (TISX)
Time Latitude Longitude Altitude Speed Heading
2026-04-25 13:35 18.43695 -65.99258 16 ft 0 kts 214°
2026-04-25 13:43 18.43692 -65.99260 16 ft 3 kts 214°
2026-04-25 13:43 18.43651 -65.99294 16 ft 12 kts 226°
2026-04-25 13:43 18.43646 -65.99378 16 ft 12 kts 290°
2026-04-25 13:44 18.43650 -65.99495 16 ft 19 kts 252°
2026-04-25 13:44 18.43561 -65.99561 16 ft 16 kts 258°
2026-04-25 13:44 18.43561 -65.99709 16 ft 24 kts 271°
2026-04-25 13:44 18.43554 -65.99901 16 ft 23 kts 243°
2026-04-25 13:45 18.43464 -65.99962 15 ft 12 kts 266°
2026-04-25 13:45 18.43464 -66.00077 15 ft 20 kts 271°
2026-04-25 13:45 18.43465 -66.00249 16 ft 27 kts 270°
2026-04-25 13:45 18.43465 -66.00444 15 ft 23 kts 270°
2026-04-25 13:46 18.43466 -66.00630 16 ft 28 kts 269°
2026-04-25 13:46 18.43466 -66.00837 15 ft 28 kts 270°
2026-04-25 13:46 18.43467 -66.01043 15 ft 28 kts 271°
2026-04-25 13:46 18.43467 -66.01249 15 ft 28 kts 270°
2026-04-25 13:47 18.43484 -66.01429 16 ft 18 kts 326°
2026-04-25 13:47 18.43586 -66.01437 16 ft 15 kts
2026-04-25 13:47 18.43704 -66.01437 16 ft 18 kts 359°
2026-04-25 13:47 18.43801 -66.01440 16 ft 4 kts 344°
2026-04-25 13:48 18.43803 -66.01441 16 ft 0 kts 342°
2026-04-25 13:48 18.43830 -66.01451 16 ft 11 kts 340°
2026-04-25 13:48 18.43896 -66.01436 16 ft 0 kts 68°
2026-04-25 13:49 18.43899 -66.01427 16 ft 11 kts 67°
2026-04-25 13:49 18.43999 -66.01183 16 ft 59 kts 67°
2026-04-25 13:49 18.44209 -66.00668 64 ft 87 kts 66°
2026-04-25 13:49 18.44452 -66.00076 260 ft 90 kts 68°
2026-04-25 13:50 18.44729 -65.99456 449 ft 95 kts 63°
2026-04-25 13:50 18.45074 -65.98840 653 ft 100 kts 59°
2026-04-25 13:50 18.45284 -65.98130 816 ft 103 kts 93°
2026-04-25 13:50 18.45011 -65.97418 922 ft 115 kts 130°
2026-04-25 13:51 18.44338 -65.96989 1158 ft 115 kts 159°
2026-04-25 13:51 18.43556 -65.96734 1373 ft 118 kts 162°
2026-04-25 13:51 18.42760 -65.96539 1648 ft 117 kts 162°
2026-04-25 13:51 18.41974 -65.96377 1924 ft 114 kts 160°
2026-04-25 13:52 18.41197 -65.96227 2185 ft 114 kts 160°
2026-04-25 13:52 18.40417 -65.96082 2458 ft 112 kts 163°
2026-04-25 13:52 18.39643 -65.95902 2652 ft 117 kts 159°
2026-04-25 13:52 18.38914 -65.95503 2845 ft 120 kts 146°
2026-04-25 13:53 18.38216 -65.95003 3031 ft 122 kts 147°
2026-04-25 13:53 18.37500 -65.94509 3195 ft 123 kts 148°
2026-04-25 13:53 18.36769 -65.94031 3371 ft 124 kts 149°
2026-04-25 13:53 18.36018 -65.93567 3540 ft 125 kts 152°
2026-04-25 13:54 18.35255 -65.93132 3700 ft 124 kts 152°
2026-04-25 13:54 18.34504 -65.92683 3871 ft 124 kts 151°
2026-04-25 13:54 18.33763 -65.92226 4053 ft 123 kts 151°
2026-04-25 13:54 18.33025 -65.91765 4225 ft 123 kts 150°
2026-04-25 13:55 18.32285 -65.91304 4410 ft 124 kts 151°
2026-04-25 13:55 18.31544 -65.90845 4580 ft 123 kts 151°
2026-04-25 13:55 18.30806 -65.90385 4759 ft 123 kts 151°
2026-04-25 13:55 18.30068 -65.89924 4918 ft 122 kts 151°
2026-04-25 13:56 18.29344 -65.89468 5091 ft 121 kts 151°
2026-04-25 13:56 18.28619 -65.89020 5267 ft 121 kts 151°
2026-04-25 13:56 18.27887 -65.88567 5422 ft 123 kts 152°
2026-04-25 13:56 18.27175 -65.88060 5583 ft 126 kts 136°
2026-04-25 13:57 18.26697 -65.87269 5738 ft 130 kts 122°
2026-04-25 13:57 18.26407 -65.86700 5841 ft 131 kts 122°
2026-04-25 13:57 18.25828 -65.85583 6035 ft 131 kts 123°
2026-04-25 13:57 18.25388 -65.84743 6181 ft 132 kts 122°
2026-04-25 13:58 18.24943 -65.83895 6344 ft 133 kts 123°
2026-04-25 13:58 18.24491 -65.83044 6491 ft 134 kts 123°
2026-04-25 13:58 18.24038 -65.82189 6646 ft 134 kts 123°
2026-04-25 13:58 18.23580 -65.81332 6795 ft 134 kts 123°
2026-04-25 13:59 18.23123 -65.80470 6949 ft 135 kts 123°
2026-04-25 13:59 18.22653 -65.79592 6999 ft 142 kts 123°
2026-04-25 13:59 18.22157 -65.78671 7005 ft 147 kts 123°
2026-04-25 13:59 18.21645 -65.77724 7007 ft 150 kts 123°
2026-04-25 14:00 18.21126 -65.76761 7005 ft 152 kts 123°
2026-04-25 14:00 18.20602 -65.75784 7006 ft 154 kts 123°
2026-04-25 14:00 18.20076 -65.74800 7006 ft 155 kts 123°
2026-04-25 14:00 18.19550 -65.73811 7007 ft 155 kts 123°
2026-04-25 14:01 18.19024 -65.72821 7004 ft 155 kts 123°
2026-04-25 14:01 18.18498 -65.71829 7008 ft 156 kts 123°
2026-04-25 14:01 18.17968 -65.70837 7005 ft 156 kts 123°
2026-04-25 14:01 18.17436 -65.69842 7009 ft 156 kts 123°
2026-04-25 14:02 18.16907 -65.68849 7009 ft 156 kts 123°
2026-04-25 14:02 18.16378 -65.67856 7010 ft 156 kts 123°
2026-04-25 14:02 18.15845 -65.66858 7010 ft 157 kts 123°
2026-04-25 14:02 18.15666 -65.66521 7010 ft 157 kts 123°
2026-04-25 14:03 18.14778 -65.64855 7008 ft 157 kts 123°
2026-04-25 14:03 18.14244 -65.63856 7008 ft 157 kts 123°
2026-04-25 14:03 18.13711 -65.62856 7011 ft 157 kts 123°
2026-04-25 14:03 18.13179 -65.61857 7011 ft 156 kts 123°
2026-04-25 14:04 18.12648 -65.60859 7008 ft 157 kts 123°
2026-04-25 14:04 18.12115 -65.59860 7005 ft 157 kts 123°
2026-04-25 14:04 18.11580 -65.58861 7008 ft 156 kts 123°
2026-04-25 14:04 18.11042 -65.57869 7009 ft 157 kts 123°
2026-04-25 14:05 18.10499 -65.56876 7008 ft 157 kts 123°
2026-04-25 14:05 18.09956 -65.55887 7010 ft 156 kts 123°
2026-04-25 14:05 18.09416 -65.54906 7005 ft 154 kts 123°
2026-04-25 14:05 18.08886 -65.53929 7017 ft 154 kts 123°
2026-04-25 14:06 18.08352 -65.52949 7026 ft 155 kts 123°
2026-04-25 14:06 18.07812 -65.51959 7025 ft 157 kts 123°
2026-04-25 14:06 18.07269 -65.50965 7017 ft 157 kts 123°
2026-04-25 14:06 18.06727 -65.49965 7015 ft 157 kts 123°
2026-04-25 14:07 18.06187 -65.48967 7017 ft 157 kts 123°
2026-04-25 14:07 18.05647 -65.47970 7017 ft 157 kts 123°
2026-04-25 14:07 18.05107 -65.46973 7015 ft 157 kts 123°
2026-04-25 14:07 18.04566 -65.45977 7015 ft 157 kts 123°
2026-04-25 14:08 18.04029 -65.44983 7015 ft 156 kts 123°
2026-04-25 14:08 18.03492 -65.43990 7019 ft 157 kts 123°
2026-04-25 14:08 18.02953 -65.42996 7017 ft 157 kts 123°
2026-04-25 14:08 18.02407 -65.41990 7017 ft 156 kts 123°
2026-04-25 14:09 18.01869 -65.40999 7019 ft 156 kts 123°
2026-04-25 14:09 18.01331 -65.40009 7016 ft 156 kts 123°
2026-04-25 14:09 18.00795 -65.39022 7015 ft 156 kts 123°
2026-04-25 14:09 18.00621 -65.38700 7016 ft 156 kts 123°
2026-04-25 14:10 17.99722 -65.37042 7019 ft 156 kts 123°
2026-04-25 14:10 17.99184 -65.36050 7017 ft 156 kts 123°
2026-04-25 14:10 17.98645 -65.35063 7016 ft 156 kts 123°
2026-04-25 14:10 17.98105 -65.34070 7016 ft 156 kts 123°
2026-04-25 14:11 17.97571 -65.33091 7017 ft 157 kts 123°
2026-04-25 14:11 17.97033 -65.32099 7018 ft 156 kts 123°
2026-04-25 14:11 17.96494 -65.31108 7019 ft 156 kts 123°
2026-04-25 14:11 17.95955 -65.30117 7018 ft 156 kts 123°
2026-04-25 14:12 17.95408 -65.29132 7021 ft 156 kts 126°
2026-04-25 14:12 17.94802 -65.28190 7018 ft 156 kts 128°
2026-04-25 14:12 17.94188 -65.27254 7015 ft 156 kts 127°
2026-04-25 14:12 17.93582 -65.26312 7017 ft 156 kts 127°
2026-04-25 14:13 17.92968 -65.25378 7018 ft 155 kts 128°
2026-04-25 14:13 17.92341 -65.24438 7015 ft 155 kts 128°
2026-04-25 14:13 17.91727 -65.23526 7015 ft 155 kts 128°
2026-04-25 14:13 17.91104 -65.22602 7016 ft 155 kts 128°
2026-04-25 14:14 17.90480 -65.21679 7016 ft 155 kts 128°
2026-04-25 14:14 17.89857 -65.20755 7018 ft 155 kts 128°
2026-04-25 14:14 17.89233 -65.19831 7017 ft 155 kts 128°
2026-04-25 14:14 17.88609 -65.18907 7016 ft 155 kts 128°
2026-04-25 14:15 17.87985 -65.17984 7019 ft 155 kts 128°
2026-04-25 14:15 17.87773 -65.17671 7017 ft 155 kts 128°
2026-04-25 14:15 17.86737 -65.16139 7017 ft 155 kts 128°
2026-04-25 14:15 17.86113 -65.15214 7019 ft 155 kts 128°
2026-04-25 14:16 17.85488 -65.14291 7020 ft 155 kts 128°
2026-04-25 14:16 17.84863 -65.13367 7016 ft 155 kts 128°
2026-04-25 14:16 17.84239 -65.12444 7018 ft 155 kts 128°
2026-04-25 14:16 17.83615 -65.11520 7017 ft 155 kts 128°
2026-04-25 14:17 17.82993 -65.10597 7016 ft 155 kts 128°
2026-04-25 14:17 17.82371 -65.09677 7016 ft 155 kts 128°
2026-04-25 14:17 17.81748 -65.08756 7018 ft 155 kts 127°
2026-04-25 14:17 17.80986 -65.08006 7018 ft 151 kts 161°
2026-04-25 14:18 17.79965 -65.07735 7019 ft 152 kts 168°
2026-04-25 14:18 17.78929 -65.07525 7020 ft 152 kts 170°
2026-04-25 14:18 17.77887 -65.07345 7017 ft 152 kts 171°
2026-04-25 14:18 17.76840 -65.07179 7019 ft 152 kts 172°
2026-04-25 14:19 17.75788 -65.07018 7016 ft 152 kts 172°
2026-04-25 14:19 17.74741 -65.06860 7018 ft 152 kts 172°
2026-04-25 14:19 17.74030 -65.06755 7019 ft 152 kts 172°
2026-04-25 14:19 17.72626 -65.06548 6782 ft 153 kts 172°
2026-04-25 14:20 17.71930 -65.06434 6574 ft 147 kts 167°
2026-04-25 14:20 17.71305 -65.06187 6372 ft 144 kts 156°
2026-04-25 14:20 17.70234 -65.05379 5970 ft 141 kts 139°
2026-04-25 14:20 17.69531 -65.04669 5669 ft 140 kts 137°
2026-04-25 14:21 17.68854 -65.03945 5371 ft 138 kts 136°
2026-04-25 14:21 17.68200 -65.03207 5071 ft 139 kts 129°
2026-04-25 14:21 17.67895 -65.02252 4772 ft 142 kts 99°
2026-04-25 14:21 17.67863 -65.01207 4436 ft 145 kts 94°
2026-04-25 14:22 17.67977 -65.00142 4060 ft 149 kts 83°
2026-04-25 14:22 17.68200 -64.99075 3685 ft 150 kts 81°
2026-04-25 14:22 17.68448 -64.98013 3308 ft 149 kts 80°
2026-04-25 14:22 17.68705 -64.96958 2932 ft 149 kts 79°
2026-04-25 14:23 17.68953 -64.95903 2556 ft 148 kts 84°
2026-04-25 14:23 17.69059 -64.94835 2180 ft 146 kts 92°
2026-04-25 14:23 17.68959 -64.93779 1801 ft 145 kts 101°
2026-04-25 14:23 17.68897 -64.92721 1458 ft 144 kts 92°
2026-04-25 14:24 17.68970 -64.91728 1301 ft 130 kts 87°
2026-04-25 14:24 17.69074 -64.90817 1169 ft 122 kts 87°
2026-04-25 14:24 17.69167 -64.89951 1042 ft 117 kts 88°
2026-04-25 14:24 17.69250 -64.89138 983 ft 106 kts 88°
2026-04-25 14:25 17.69335 -64.88392 911 ft 100 kts 86°
2026-04-25 14:25 17.69410 -64.87679 849 ft 97 kts 89°
2026-04-25 14:25 17.69465 -64.86977 786 ft 96 kts 88°
2026-04-25 14:25 17.69510 -64.86516 737 ft 96 kts 88°
2026-04-25 14:26 17.69600 -64.85650 653 ft 80 kts 87°
2026-04-25 14:26 17.69678 -64.85068 592 ft 83 kts 84°
2026-04-25 14:26 17.69743 -64.84459 534 ft 83 kts 92°
2026-04-25 14:26 17.69779 -64.83857 501 ft 84 kts 85°
2026-04-25 14:27 17.69852 -64.83242 448 ft 87 kts 86°
2026-04-25 14:27 17.69913 -64.82612 336 ft 87 kts 86°
2026-04-25 14:27 17.69973 -64.81983 200 ft 84 kts 86°
2026-04-25 14:27 17.70035 -64.81409 69 ft 71 kts 86°
2026-04-25 14:28 17.70076 -64.80980 59 ft 41 kts 83°
2026-04-25 14:28 17.70094 -64.80806 56 ft 23 kts 84°
2026-04-25 14:28 17.70115 -64.80575 49 ft 41 kts 86°
2026-04-25 14:28 17.70145 -64.80281 44 ft 31 kts 83°
2026-04-25 14:29 17.70167 -64.80086 40 ft 29 kts 86°
2026-04-25 14:29 17.70149 -64.79863 37 ft 31 kts 110°
2026-04-25 14:29 17.70059 -64.79790 37 ft 10 kts 174°
2026-04-25 14:29 17.69985 -64.79825 38 ft 17 kts 242°
2026-04-25 14:30 17.69944 -64.79853 38 ft 1 kts 353°
2026-04-25 14:30 17.69944 -64.79852 38 ft 0 kts 357°